Regional Weather Roundup
Issued by NWS Spokane, WA

Home | Current Version | Previous Version | Text Only | Print | Product List | Glossary On
Versions: 1 2 3 4 5 6 7 8 9 10 11 12 13 14 15 16 17 18 19 20 21 22 23 24 25 26 27 28 29 30 31 32 33 34 35 36 37 38 39 40 41 42 43 44 45 46 47 48 49 50
000
NZUS01 KOTX 241510
RWROTX
EASTERN WASHINGTON/NORTHERN IDAHO ROUNDUP
NATIONAL WEATHER SERVICE, SPOKANE WA
700 AM PST MON NOV 24 2014

Note: "fair" indicated few or no clouds below 12,000 feet with no
significant weather and/or obstructions to visibility.

...NORTHEAST WASHINGTON AND NORTHERN IDAHO PANHANDLE...

CITY           SKY/WX    TMP DP  RH WIND       PRES   REMARKS
SPOKANE INTL   MOCLDY    28  26  92 S7        30.30R WCI  21
SPOKANE DOWNTO CLEAR     29  27  92 NE3       30.34R
COEUR D ALENE  CLEAR     28  25  86 S6        30.31S WCI  22
DEER PARK      PTCLDY    19  17  92 CALM      30.32R
SANDPOINT      CLEAR     32  32 100 S10       30.29S WCI  24

...SOUTHEAST WASHINGTON AND SOUTHERN IDAHO PANHANDLE...

CITY           SKY/WX    TMP DP  RH WIND       PRES   REMARKS
WALLA WALLA    CLEAR     38  32  79 SE8       30.36S
PULLMAN/MOSCOW CLEAR     33  29  85 CALM      30.35R
LEWISTON       CLEAR     37  29  72 CALM      30.37R
LOWELL           N/A     35  34  96 CALM      30.42R

...COLUMBIA BASIN...

CITY           SKY/WX    TMP DP  RH WIND       PRES   REMARKS
EPHRATA        MOCLDY    34  28  79 CALM      30.31S
MOSES LAKE     MOCLDY    30  27  88 SE6       30.33S WCI  24
TRI CITIES     PTCLDY    27  26  96 NW5       30.37F WCI  22
HERMISTON      CLEAR     31  29  92 CALM      30.37R
PENDLETON      PTCLDY    34  31  88 S8        30.36S WCI  27

...EAST SLOPES CASCADES...

CITY           SKY/WX    TMP DP  RH WIND       PRES   REMARKS
THE DALLES     MOCLDY    39  35  86 SE3       30.40R
YAKIMA         PTCLDY    25  21  85 W5        30.36S WCI  19
ELLENSBURG     MOCLDY    31  26  82 N6        30.32S WCI  25
WENATCHEE      MOCLDY    35  27  72 NW6       30.32R
OMAK           CLOUDY    22  19  89 W3        30.32S

...SOUTHERN BRITISH COLUMBIA...

CITY           SKY/WX    TMP DP  RH WIND       PRES   REMARKS
PENTICTON      CLOUDY    36  30  80 S13       30.28S
CRANBROOK      FOG       23  21  93 NE2       30.19R VSB 1/8

...WESTERN MONTANA...

CITY           SKY/WX    TMP DP  RH WIND       PRES   REMARKS
MISSOULA       MOCLDY    33  25  72 CALM      30.25R

...NEIGHBORING CITIES...

CITY           SKY/WX    TMP DP  RH WIND       PRES   REMARKS
SEATTLE        CLOUDY    40  34  79 S3        30.35R
CALGARY        PTCLDY    30  21  69 SW5       30.00R WCI  25



USA.gov is the U.S. government's official web portal to all federal, state and local government web resources and services.